This demonstration page uses our WeatherBlox Daily Observations layout. Learn more.

Left ArrowRight Arrow

39.01783, -85.05884

Hourly Observations for July 24, 2020

Temp ( °F °C ) Dew Point ( °F °C ) Humidity (%) Winds ( mph kmh ) Pressure ( in mb ) Visibility ( mi km ) Precip ( " mm )
12:52 am 00:52 Mostly Cloudy 72 22.2 70 21.1 94 94 Calm 30.08 1019 9 14 0.00 0.00
1:52 am 01:52 Mostly Cloudy 73 22.8 70 21.1 90 90 NNW 3 6 30.08 1019 10 16 0.00 0.00
2:52 am 02:52 Mostly Clear 70 21.1 68 20 93 93 S 3 6 30.08 1019 7 11 0.00 0.00
3:52 am 03:52 Clear 70 21.1 68 20 93 93 Calm 30.07 1018 7 11 0.00 0.00
4:52 am 04:52 Clear 70 21.1 68 20 93 93 Calm 30.07 1018 7 11 0.00 0.00
5:42 am 05:42 Mostly Clear with Patchy Fog 70 21.1 68 20 93 93 NNW 3 6 30.08 1019 6 10 0.00 0.00
5:52 am 05:52 Mostly Clear with Patchy Fog 70 21.1 68 20 93 93 NNW 3 6 30.08 1019 6 10 0.00 0.00
6:01 am 06:01 Partly Cloudy with Mist and Fog 70 21.1 68 20 93 93 N 5 7 30.08 1019 1 1 0.00 0.00
6:18 am 06:18 Mostly Cloudy with Mist and Fog 70 21.1 68 20 93 93 Calm 30.09 1019 1 1 0.00 0.00
6:52 am 06:52 Mostly Cloudy with Fog 70 21.1 69 20.6 97 97 Calm 30.10 1019 1 1 0.00 0.00
7:08 am 07:08 Mostly Cloudy with Fog 71 21.7 69 20.6 94 94 Calm 30.10 1019 1 2 0.00 0.00
7:23 am 07:23 Partly Cloudy with Fog 71 21.7 69 20.6 94 94 NNW 3 6 30.11 1020 2 3 0.00 0.00
7:52 am 07:52 Partly Cloudy with Fog 71 21.7 69 20.6 94 94 N 3 6 30.11 1020 2 3 0.00 0.00
8:01 am 08:01 Partly Cloudy with Fog 72 22.2 69 20.6 91 91 Calm 30.11 1020 6 10 0.00 0.00
8:52 am 08:52 Mostly Sunny 76 24.4 67 19.4 74 74 Calm 30.12 1020 10 16 0.00 0.00
9:52 am 09:52 Sunny 78 25.6 69 20.6 74 74 Calm 30.13 1020 10 16 0.00 0.00
10:52 am 10:52 Mostly Sunny 81 27.2 68 20 65 65 SW 5 7 30.14 1021 10 16 0.00 0.00
11:52 am 11:52 Partly Cloudy 82 27.8 67 19.4 60 60 SW 7 11 30.14 1021 10 16 0.00 0.00
12:52 pm 12:52 Partly Cloudy 84 28.9 60 15.6 44 44 VRB 5 7 30.13 1020 10 16 0.00 0.00
1:52 pm 13:52 Partly Cloudy 85 29.4 64 17.8 50 50 NW 9 15 30.12 1020 10 16 0.00 0.00
2:52 pm 14:52 Partly Cloudy 86 30 64 17.8 48 48 SW 6 9 30.10 1019 10 16 0.00 0.00
3:52 pm 15:52 Partly Cloudy 86 30 61 16.1 43 43 WSW 6 9 30.08 1019 10 16 0.00 0.00
4:52 pm 16:52 Mostly Sunny 88 31.1 61 16.1 40 40 WNW 7 11 30.07 1018 10 16 0.00 0.00
5:52 pm 17:52 Mostly Sunny 85 29.4 62 16.7 46 46 WSW 7 11 30.06 1018 10 16 0.00 0.00
6:52 pm 18:52 Mostly Sunny 85 29.4 63 17.2 48 48 W 6 9 30.06 1018 10 16 0.00 0.00
7:52 pm 19:52 Mostly Sunny 84 28.9 63 17.2 49 49 WNW 6 9 30.07 1018 10 16 0.00 0.00
8:52 pm 20:52 Mostly Sunny 79 26.1 65 18.3 62 62 W 6 9 30.08 1019 10 16 0.00 0.00
9:52 pm 21:52 Clear 76 24.4 65 18.3 69 69 W 3 6 30.08 1019 10 16 0.00 0.00
10:52 pm 22:52 Clear 74 23.3 65 18.3 74 74 W 5 7 30.09 1019 10 16 0.00 0.00
11:52 pm 23:52 Clear 76 24.4 65 18.3 69 69 Calm 30.09 1019 10 16 0.00 0.00

Powered by AerisWeather